Tracking 28794 objects as of 19-Apr-2024
HD Live streaming from Space Station
objects crossing your sky now

COSMOS 617

Track COSMOS 617 now!
10-day predictions
COSMOS 617 is classified as:


NORAD ID: 6985
Int'l Code: 1973-104A
Perigee: 1,340.4 km
Apogee: 1,490.8 km
Inclination: 74.0 °
Period: 114.0 minutes
Semi major axis: 7786 km
RCS: 0.6851 m2 (medium)
Launch date: December 19, 1973
Source: Commonwealth of Independent States (former USSR) (CIS)
Launch site: PLESETSK MISSILE AND SPACE COMPLEX (PKMTR)
Your satellite tracking list
Your tracking list is empty




NASA's NSSDC Master Catalog

Two Line Element Set (TLE):
1 06985U 73104A   24109.90197973 -.00000011  00000-0  32694-4 0  9995
2 06985  74.0326  34.3559 0096584 208.9130 222.0425 12.63508619321538
Source of the keplerian elements: AFSPC